TimeEST,TemperatureF,Dew PointF,Humidity,Sea Level PressureIn,VisibilityMPH,Wind Direction,Wind SpeedMPH,Gust SpeedMPH,PrecipitationIn,Events,Conditions,WindDirDegrees,DateUTC
12:15 AM,44.6,37.4,76,30.24,10.0,ENE,9.2,-,N/A,,Clear,70,2011-11-27 05:15:00
12:35 AM,44.6,37.4,76,30.24,10.0,NE,6.9,-,N/A,,Clear,50,2011-11-27 05:35:00
12:55 AM,44.6,35.6,71,30.24,10.0,ENE,8.1,-,N/A,,Clear,70,2011-11-27 05:55:00
1:15 AM,44.6,37.4,76,30.26,10.0,ENE,4.6,-,N/A,,Clear,60,2011-11-27 06:15:00
1:35 AM,42.8,35.6,76,30.26,10.0,NE,5.8,-,N/A,,Scattered Clouds,50,2011-11-27 06:35:00
1:55 AM,42.8,35.6,76,30.26,10.0,NNE,4.6,-,N/A,,Partly Cloudy,30,2011-11-27 06:55:00
2:15 AM,41.0,35.6,81,30.26,10.0,NE,5.8,-,N/A,,Clear,40,2011-11-27 07:15:00
2:35 AM,41.0,35.6,81,30.26,10.0,NNE,4.6,-,N/A,,Clear,30,2011-11-27 07:35:00
2:55 AM,41.0,35.6,81,30.26,10.0,NNE,5.8,-,N/A,,Clear,30,2011-11-27 07:55:00
3:15 AM,41.0,35.6,81,30.26,10.0,NE,9.2,-,N/A,,Clear,40,2011-11-27 08:15:00
3:35 AM,42.8,37.4,81,30.26,10.0,NE,6.9,-,N/A,,Clear,50,2011-11-27 08:35:00
3:55 AM,42.8,35.6,76,30.26,10.0,NE,8.1,-,N/A,,Clear,40,2011-11-27 08:55:00
4:15 AM,41.0,35.6,81,30.27,10.0,NNE,8.1,-,N/A,,Clear,30,2011-11-27 09:15:00
4:35 AM,41.0,35.6,81,30.26,10.0,NE,8.1,-,N/A,,Clear,40,2011-11-27 09:35:00
4:55 AM,41.0,35.6,81,30.25,10.0,NE,8.1,-,N/A,,Clear,40,2011-11-27 09:55:00
5:15 AM,39.2,33.8,81,30.26,10.0,NE,6.9,-,N/A,,Clear,40,2011-11-27 10:15:00
5:35 AM,39.2,33.8,81,30.27,10.0,NE,6.9,-,N/A,,Clear,40,2011-11-27 10:35:00
5:55 AM,39.2,33.8,81,30.28,10.0,NE,6.9,-,N/A,,Partly Cloudy,50,2011-11-27 10:55:00
6:15 AM,41.0,35.6,81,30.28,10.0,NE,8.1,-,N/A,,Partly Cloudy,40,2011-11-27 11:15:00
6:35 AM,41.0,35.6,81,30.28,10.0,NE,8.1,-,N/A,,Mostly Cloudy,50,2011-11-27 11:35:00
6:55 AM,42.8,35.6,76,30.28,10.0,NE,8.1,-,N/A,,Overcast,50,2011-11-27 11:55:00
7:15 AM,42.8,35.6,76,30.29,10.0,NE,6.9,-,N/A,,Overcast,50,2011-11-27 12:15:00
7:36 AM,42.8,35.6,76,30.30,10.0,NE,9.2,-,N/A,,Overcast,50,2011-11-27 12:36:00
8:35 AM,44.6,37.4,76,30.30,10.0,ENE,8.1,-,N/A,,Overcast,60,2011-11-27 13:35:00
8:55 AM,44.6,37.4,76,30.30,10.0,ENE,6.9,-,N/A,,Overcast,60,2011-11-27 13:55:00
9:35 AM,46.4,39.2,76,30.29,10.0,East,8.1,-,N/A,,Overcast,90,2011-11-27 14:35:00
10:15 AM,48.2,42.8,82,30.28,10.0,ESE,13.8,-,N/A,,Overcast,110,2011-11-27 15:15:00
10:35 AM,48.2,42.8,82,30.28,10.0,ESE,13.8,-,N/A,,Mostly Cloudy,110,2011-11-27 15:35:00
10:55 AM,50.0,44.6,82,30.27,10.0,ESE,13.8,-,N/A,,Mostly Cloudy,120,2011-11-27 15:55:00
11:15 AM,51.8,42.8,71,30.26,10.0,ESE,16.1,20.7,N/A,,Mostly Cloudy,120,2011-11-27 16:15:00
11:35 AM,50.0,42.8,76,30.26,10.0,ESE,13.8,19.6,N/A,,Mostly Cloudy,120,2011-11-27 16:35:00
11:55 AM,50.0,42.8,76,30.25,10.0,ESE,13.8,-,N/A,,Overcast,110,2011-11-27 16:55:00
12:15 PM,50.0,42.8,76,30.26,10.0,ESE,13.8,-,N/A,,Overcast,120,2011-11-27 17:15:00
12:55 PM,48.2,42.8,82,30.24,10.0,ESE,10.4,18.4,N/A,,Overcast,120,2011-11-27 17:55:00
1:15 PM,48.2,42.8,82,30.24,10.0,ESE,15.0,-,N/A,,Overcast,110,2011-11-27 18:15:00
1:35 PM,48.2,42.8,82,30.24,10.0,ESE,11.5,-,N/A,,Overcast,120,2011-11-27 18:35:00
1:55 PM,48.2,42.8,82,30.24,10.0,ESE,12.7,-,N/A,,Overcast,120,2011-11-27 18:55:00
2:35 PM,48.2,42.8,82,30.24,10.0,SE,10.4,-,N/A,,Overcast,130,2011-11-27 19:35:00
2:55 PM,48.2,42.8,82,30.24,9.0,ESE,10.4,-,N/A,,Overcast,120,2011-11-27 19:55:00
3:15 PM,48.2,42.8,82,30.23,9.0,ESE,12.7,18.4,N/A,,Overcast,120,2011-11-27 20:15:00
3:35 PM,48.2,42.8,82,30.22,9.0,ESE,11.5,-,N/A,,Overcast,120,2011-11-27 20:35:00
3:55 PM,48.2,42.8,82,30.22,8.0,SE,11.5,-,N/A,,Overcast,130,2011-11-27 20:55:00
4:15 PM,48.2,42.8,82,30.21,9.0,SE,11.5,-,N/A,,Overcast,130,2011-11-27 21:15:00
4:35 PM,48.2,42.8,82,30.20,9.0,SE,13.8,19.6,N/A,,Overcast,130,2011-11-27 21:35:00
4:55 PM,48.2,42.8,82,30.19,10.0,ESE,10.4,19.6,N/A,,Overcast,120,2011-11-27 21:55:00
5:15 PM,48.2,42.8,82,30.19,10.0,ESE,13.8,-,N/A,,Overcast,120,2011-11-27 22:15:00
5:35 PM,48.2,42.8,82,30.20,9.0,SE,9.2,-,N/A,,Overcast,130,2011-11-27 22:35:00
5:55 PM,48.2,42.8,82,30.19,9.0,SE,9.2,-,N/A,,Overcast,130,2011-11-27 22:55:00
6:15 PM,48.2,44.6,87,30.18,10.0,SE,6.9,-,N/A,,Overcast,130,2011-11-27 23:15:00
6:35 PM,48.2,42.8,82,30.17,10.0,SE,9.2,-,N/A,,Overcast,140,2011-11-27 23:35:00
6:55 PM,48.2,44.6,87,30.17,10.0,SE,10.4,16.1,N/A,,Overcast,140,2011-11-27 23:55:00
7:15 PM,50.0,44.6,82,30.17,10.0,SSE,9.2,-,N/A,,Overcast,150,2011-11-28 00:15:00
7:35 PM,50.0,44.6,82,30.17,10.0,SSE,9.2,-,N/A,,Overcast,150,2011-11-28 00:35:00
7:55 PM,50.0,44.6,82,30.16,10.0,SE,10.4,-,N/A,,Overcast,140,2011-11-28 00:55:00
8:15 PM,50.0,44.6,82,30.16,10.0,SSE,10.4,-,N/A,,Overcast,160,2011-11-28 01:15:00
8:35 PM,50.0,44.6,82,30.15,10.0,SSE,4.6,-,N/A,,Overcast,160,2011-11-28 01:35:00
8:55 PM,50.0,44.6,82,30.14,10.0,SSE,6.9,-,N/A,,Overcast,160,2011-11-28 01:55:00
9:15 PM,50.0,44.6,82,30.13,9.0,South,8.1,-,N/A,,Overcast,180,2011-11-28 02:15:00
9:35 PM,51.8,44.6,76,30.12,8.0,South,5.8,-,N/A,,Overcast,180,2011-11-28 02:35:00
9:55 PM,51.8,46.4,82,30.11,8.0,SSW,5.8,-,N/A,,Overcast,200,2011-11-28 02:55:00
10:15 PM,51.8,46.4,82,30.10,8.0,SSW,10.4,-,N/A,,Overcast,200,2011-11-28 03:15:00
10:35 PM,51.8,46.4,82,30.09,7.0,SSW,6.9,-,N/A,,Overcast,200,2011-11-28 03:35:00
10:55 PM,51.8,46.4,82,30.09,6.0,SSW,6.9,-,N/A,,Overcast,210,2011-11-28 03:55:00
11:15 PM,51.8,46.4,82,30.09,7.0,SSW,10.4,-,N/A,,Overcast,210,2011-11-28 04:15:00
11:35 PM,51.8,46.4,82,30.09,7.0,SSW,8.1,-,N/A,,Overcast,210,2011-11-28 04:35:00
11:55 PM,51.8,46.4,82,30.07,8.0,SSW,10.4,-,N/A,,Overcast,200,2011-11-28 04:55:00